DECAYED

CZ-6A DEB, 54890 (Decayed)

Orbit data source: Space-Track

CZ-6A DEB, 54890 was space debris in SSO originally from a launch on Fri, 11 Nov 2022 UTC launched from the Taiyaun Space Center, China (TSC). Debris objects in space refer to the collection of defunct objects orbiting the Earth. Examples of debris include non-operational satellites, rocket bodies, and fragments generated from explosions, collisions, or faulty payload assembly.

Not visible in the next 10 days
Identifier
54890, 2022-151QB
Orbit
Decayed
Country
Flag of CNCN / PRC
Related business
Manufacturer
SAST
Mission
Decayed spacecraft
Bus & Motor
Unknown
Mass
Unknown
Launch date (UTC)
2022-11-11 (4 years ago)
Launch vehicle
Unknown
Launch site
Taiyaun Space Center, China (TSC)
Object type
Payload
Rocket body
Debris
Shape & HBR
Unknown shape, 0.1 m
Radar Cross Section
Medium (>0.1 m² and <1 m²)

Expand to show TLE details & history
Last TLE update: 2 months ago

TLE from 2 months ago
0 CZ-6A DEB
1 54890U 22151QB  26103.19239093  .02848730  64729-2  91381-2 0  9991
2 54890  98.5956 193.8061 0019696 303.1580  56.7801 15.92253532182082
Epoch: 2026-04-13T04:37Z
TLE epoch observation values (Epoch: 2026-04-13T04:37:02.576Z)
Latitude
0.00004°
Longitude
-76.84116°
Altitude
291.943 km
Speed
7.737 km/s
True Right ascension
12h 55m 13s
True Declination
0° 00' 00"
Sunlit
Object was in full shadow at epoch
Visualization orbit readout
Latitude
Unknown
Longitude
Unknown
Altitude
Unknown
Speed
Unknown
Apparent Right ascension
Unknown
Apparent Declination
Unknown
Sunlit
N/A
Visualization observer readout
Local Sidereal Time
21:35:06
Azimuth
Unknown
Elevation
Unknown
Doppler factor
Unknown
Orbital elements
Apogee altitude
306.044 km
Perigee altitude
279.766 km
Semi-major axis
6,671.042 km
Eccentricity
0.00197
Inclination
98.5956°
RAAN
193.8061°
Arg. of periapsis
303.158°
True anomaly
56.96917°
Mean anomaly
56.7801°
Eccentric anomaly
56.87461°
Mean motion
3.98339 °/min
Orbital period
90.38 mins
BSTAR
0.0091381
Loading maneuver chart data...
Computing Atmospheric mass density...
Loading historical data...
Loading historical data...
Loading historical data...
Loading historical data...
Loading historical data...
Loading historical data...
Loading historical data...

Documentation

Showing up to 5 results
|